FW5810 Weather Reports


time (UTC)temp
C
wind
direction
speed
KPH
gust
KPH
rain 1hr
cm
rain 24hr
cm
rain mn
cm
humidity
%
barometer
mb
20260905163048 23 47 3.2 6.4 0.00 0.03 0.03 81 1014.6
20260905162544 23 19 3.2 4.8 0.00 0.03 0.03 81 1014.6
20260905162043 23 11 4.8 8.0 0.00 0.03 0.03 80 1014.6
20260905161543 23 4 11.3 12.9 0.00 0.03 0.03 79 1014.6
20260905161041 23 1 8.0 11.3 0.00 0.03 0.03 81 1014.6
20260905160539 23 23 4.8 8.0 0.00 0.03 0.03 80 1014.6
20260905160034 23 89 3.2 11.3 0.00 0.03 0.03 80 1014.7
20260905155534 23 95 4.8 6.4 0.00 0.03 0.03 80 1014.8
20260905155033 23 37 4.8 8.0 0.00 0.03 0.03 80 1014.8
20260905154528 23 351 6.4 8.0 0.00 0.03 0.03 82 1014.6
20260905154024 23 8 6.4 6.4 0.00 0.03 0.03 83 1014.7
20260905153520 23 31 8.0 8.0 0.00 0.03 0.03 82 1014.8
20260905153019 23 6 3.2 4.8 0.00 0.03 0.03 82 1014.9
20260905152519 23 59 1.6 4.8 0.00 0.03 0.03 82 1014.7
20260905152015 23 0 1.6 4.8 0.00 0.03 0.03 84 1014.5
20260905151510 23 34 3.2 4.8 0.00 0.03 0.03 83 1014.4
20260905151005 23 34 3.2 1.6 0.00 0.03 0.03 84 1014.5
20260905150500 23 34 0.0 1.6 0.00 0.03 0.03 83 1014.3
20260905145956 23 33 0.0 0.0 0.00 0.03 0.03 83 1014.5
20260905145451 23 12 0.0 0.0 0.00 0.03 0.03 84 1014.3
20260905144950 23 12 0.0 1.6 0.00 0.03 0.03 84 1014.3
20260905144446 23 11 0.0 1.6 0.00 0.03 0.03 86 1014.3
20260905143945 23 51 1.6 1.6 0.00 0.03 0.03 86 1014.1
20260905143444 23 69 3.2 1.6 0.00 0.03 0.03 87 1014.1
20260905142939 22 40 1.6 4.8 0.00 0.03 0.03 89 1014.1
20260905142438 22 22 4.8 6.4 0.00 0.03 0.03 89 1014.3
20260905141933 22 37 1.6 1.6 0.00 0.03 0.03 91 1014.1
20260905141428 22 37 3.2 4.8 0.00 0.03 0.03 93 1014.1
20260905140924 21 33 4.8 4.8 0.00 0.03 0.03 97 1014.1
20260905140420 21 69 3.2 4.8 0.00 0.03 0.03 99 1014.0
20260905135918 21 27 4.8 4.8 0.00 0.03 0.03 99 1014.0
20260905135414 21 23 1.6 4.8 0.00 0.03 0.03 99 1014.1
20260905134909 21 13 4.8 8.0 0.00 0.03 0.03 99 1014.1
20260905134408 21 23 4.8 6.4 0.00 0.03 0.03 99 1014.0
20260905133903 20 22 4.8 4.8 0.00 0.03 0.03 99 1014.1
20260905133358 20 23 1.6 1.6 0.00 0.03 0.03 99 1014.3
20260905132857 20 22 1.6 1.6 0.00 0.03 0.03 99 1014.4
20260905132352 20 22 0.0 0.0 0.00 0.03 0.03 99 1014.2
20260905131846 20 22 0.0 0.0 0.00 0.03 0.03 99 1014.4
20260905131342 20 22 1.6 1.6 0.00 0.03 0.03 99 1014.6
20260905130837 20 23 0.0 0.0 0.00 0.03 0.03 99 1014.8
20260905130336 20 22 0.0 0.0 0.00 0.03 0.03 99 1014.5
20260905125831 20 22 0.0 0.0 0.00 0.03 0.03 99 1014.6
20260905125326 20 23 0.0 0.0 0.00 0.03 0.03 99 1014.5
20260905124822 20 23 1.6 1.6 0.00 0.03 0.03 99 1014.6
20260905124318 20 21 3.2 1.6 0.00 0.03 0.03 99 1014.6
20260905123813 20 15 0.0 0.0 0.00 0.03 0.03 99 1014.6
20260905123310 20 15 0.0 0.0 0.00 0.03 0.03 99 1014.5
20260905122809 20 15 0.0 0.0 0.00 0.03 0.03 99 1014.6
20260905122309 20 15 0.0 0.0 0.00 0.03 0.03 99 1014.7
20260905121805 20 15 0.0 0.0 0.00 0.03 0.03 99 1014.6
20260905121301 20 15 0.0 1.6 0.00 0.03 0.03 99 1014.5
20260905120759 20 14 0.0 1.6 0.00 0.03 0.03 99 1014.5
20260905120300 20 14 0.0 0.0 0.00 0.03 0.03 99 1014.5
20260905115754 20 14 0.0 1.6 0.00 0.03 0.03 99 1014.5
20260905115249 20 15 0.0 0.0 0.00 0.03 0.03 99 1014.2
20260905114748 19 15 0.0 1.6 0.00 0.03 0.03 99 1014.4
20260905114247 19 343 0.0 0.0 0.00 0.03 0.03 99 1014.2
20260905113746 19 343 0.0 0.0 0.00 0.03 0.03 99 1014.3
20260905113243 19 343 0.0 1.6 0.00 0.03 0.03 99 1014.3
20260905112737 19 343 0.0 1.6 0.00 0.03 0.03 99 1014.0
20260905112232 19 343 0.0 0.0 0.00 0.03 0.03 99 1013.9
20260905111727 19 343 1.6 1.6 0.00 0.03 0.03 99 1014.1
20260905111221 19 342 0.0 1.6 0.00 0.03 0.03 99 1014.1
20260905110720 19 342 0.0 0.0 0.00 0.03 0.03 99 1014.2
20260905110215 19 341 1.6 1.6 0.00 0.03 0.03 99 1014.1
20260905105711 19 341 0.0 0.0 0.00 0.03 0.03 99 1014.0
20260905105209 19 341 0.0 0.0 0.00 0.03 0.03 99 1014.2
20260905104704 19 341 0.0 0.0 0.00 0.03 0.03 99 1014.2
20260905104200 19 341 0.0 0.0 0.13 0.03 0.03 99 1014.5
20260905103655 19 341 0.0 0.0 0.13 0.03 0.03 99 1014.5
20260905103151 19 339 1.6 1.6 0.00 0.00 0.00 99 1014.6
20260905102646 19 338 0.0 0.0 0.00 0.00 0.00 99 1014.7
20260905102143 19 338 0.0 0.0 0.00 0.00 0.00 99 1014.6
20260905101641 19 338 0.0 0.0 0.00 0.00 0.00 99 1014.7
20260905101140 19 338 0.0 0.0 0.00 0.00 0.00 99 1014.5
20260905100636 19 337 0.0 1.6 0.00 0.00 0.00 99 1014.5
20260905100131 19 30 1.6 1.6 0.00 0.00 0.00 99 1014.3
20260905095624 19 30 0.0 0.0 0.00 0.00 0.00 99 1014.1
20260905095120 19 30 1.6 1.6 0.00 0.00 0.00 99 1013.9
20260905094615 20 30 0.0 1.6 0.00 0.00 0.00 99 1014.0
20260905094114 20 30 0.0 0.0 0.00 0.00 0.00 99 1013.9
20260905093614 20 30 0.0 0.0 0.00 0.00 0.00 99 1013.9
20260905093111 20 30 0.0 0.0 0.00 0.00 0.00 99 1013.9
20260905092610 20 30 1.6 1.6 0.00 0.00 0.00 99 1013.7
20260905092107 19 30 0.0 0.0 0.00 0.00 0.00 99 1013.5
20260905091606 19 30 0.0 1.6 0.00 0.00 0.00 99 1013.4
20260905091100 19 30 0.0 0.0 0.00 0.00 0.00 99 1013.2
20260905090554 19 30 1.6 1.6 0.00 0.00 0.00 99 1013.5
20260905090050 19 30 0.0 0.0 0.00 0.00 0.00 99 1013.7
20260905085548 19 30 0.0 0.0 0.00 0.00 0.00 99 1013.8
20260905085044 19 30 0.0 0.0 0.00 0.00 0.00 99 1013.8
20260905084543 19 30 0.0 0.0 0.00 0.00 0.00 99 1013.4
20260905084039 19 30 0.0 0.0 0.00 0.00 0.00 99 1013.5
20260905083533 18 30 0.0 1.6 0.00 0.00 0.00 99 1013.0
20260905083030 18 30 0.0 0.0 0.00 0.00 0.00 99 1013.2
20260905082525 18 30 1.6 1.6 0.00 0.00 0.00 99 1013.0
20260905082021 18 30 0.0 0.0 0.00 0.00 0.00 99 1012.9
20260905081515 18 30 1.6 1.6 0.00 0.00 0.00 99 1012.9
20260905081015 18 30 0.0 0.0 0.00 0.00 0.00 99 1013.3
20260905080509 18 30 0.0 0.0 0.00 0.00 0.00 99 1013.4
20260905080004 18 30 0.0 0.0 0.00 0.00 0.00 99 1013.4
20260905075457 18 30 0.0 0.0 0.00 0.00 0.00 99 1013.3
20260905074955 18 30 0.0 0.0 0.00 0.00 0.00 99 1013.3
20260905074452 18 30 0.0 0.0 0.00 0.00 0.00 99 1013.2
20260905073947 18 30 0.0 0.0 0.00 0.00 0.00 99 1013.4
20260905073442 18 30 0.0 0.0 0.00 0.00 0.00 99 1013.4
20260905072938 18 30 0.0 0.0 0.00 0.00 0.00 99 1013.2
20260905072432 18 30 0.0 0.0 0.00 0.00 0.00 99 1013.3
20260905071928 18 30 0.0 0.0 0.00 0.00 0.00 99 1013.5
20260905071426 18 30 0.0 0.0 0.00 0.00 0.00 99 1013.5
20260905070924 18 30 0.0 0.0 0.00 0.00 0.00 99 1013.5
20260905070421 18 30 0.0 0.0 0.00 0.00 0.00 99 1013.2
20260905065920 18 30 0.0 0.0 0.00 0.00 0.00 99 1013.4
20260905065418 18 30 0.0 0.0 0.00 0.00 0.00 99 1013.7
20260905064914 18 30 0.0 0.0 0.00 0.00 0.00 99 1013.7
20260905064409 19 30 0.0 0.0 0.00 0.00 0.00 99 1013.7
20260905063908 19 30 0.0 0.0 0.00 0.00 0.00 99 1013.9
20260905063404 19 30 0.0 0.0 0.00 0.00 0.00 99 1014.0
20260905062900 19 30 0.0 1.6 0.00 0.00 0.00 99 1014.0
20260905062354 19 30 1.6 1.6 0.00 0.00 0.00 99 1014.1
20260905061849 19 30 0.0 0.0 0.00 0.00 0.00 99 1014.1
20260905061343 19 30 0.0 0.0 0.00 0.00 0.00 99 1014.1
20260905060838 19 30 0.0 0.0 0.00 0.00 0.00 99 1014.1
20260905060335 19 30 0.0 1.6 0.00 0.00 0.00 99 1014.3
20260905055833 19 30 0.0 0.0 0.00 0.00 0.00 99 1014.3
20260905055328 19 30 0.0 0.0 0.00 0.00 0.00 99 1014.4
20260905054828 19 30 0.0 0.0 0.00 0.00 0.00 99 1014.7
20260905054325 19 30 0.0 0.0 0.00 0.00 0.00 99 1014.7
20260905053824 19 30 0.0 0.0 0.00 0.00 0.00 99 1014.5
20260905053319 19 30 0.0 0.0 0.00 0.00 0.00 99 1014.6
20260905052814 19 30 0.0 0.0 0.00 0.00 0.00 99 1014.7
20260905052313 19 30 1.6 1.6 0.00 0.00 0.00 99 1014.8
20260905051808 19 30 0.0 0.0 0.00 0.00 0.00 99 1014.7
20260905051304 19 30 0.0 0.0 0.00 0.00 0.00 99 1014.7
20260905050801 19 30 0.0 0.0 0.00 0.00 0.00 99 1014.5
20260905050256 20 30 0.0 0.0 0.00 0.00 0.00 99 1014.5
20260905045751 20 30 0.0 0.0 0.00 0.00 0.00 99 1014.7
20260905045247 19 30 0.0 0.0 0.00 0.00 0.00 99 1014.6
20260905044742 19 30 0.0 0.0 0.00 0.00 0.00 99 1014.7
20260905044237 19 30 0.0 0.0 0.00 0.00 0.00 99 1014.6
20260905043736 19 30 0.0 0.0 0.00 0.00 0.00 99 1014.6
20260905043235 19 30 0.0 0.0 0.00 0.00 0.00 99 1014.8
20260905042731 19 30 0.0 0.0 0.00 0.00 0.00 99 1014.8
20260905042229 19 30 0.0 0.0 0.00 0.00 0.00 99 1014.7
20260905041726 19 30 0.0 0.0 0.00 0.00 0.00 99 1014.6
20260905041221 19 30 0.0 0.0 0.00 0.00 0.00 99 1014.6
20260905040716 19 30 0.0 0.0 0.00 0.00 0.00 99 1014.7
20260905040214 19 30 0.0 0.0 0.00 0.00 0.00 99 1014.7
20260905035709 19 30 0.0 0.0 0.00 0.23 0.23 99 1014.6
20260905035206 19 30 0.0 0.0 0.00 0.23 0.23 99 1014.8
20260905034702 19 30 1.6 0.0 0.00 0.23 0.23 98 1014.7
20260905034201 20 30 0.0 0.0 0.00 0.23 0.23 98 1014.7
20260905033700 20 30 0.0 0.0 0.00 0.23 0.23 98 1014.6
20260905033156 20 30 0.0 0.0 0.00 0.23 0.23 98 1014.6
20260905032655 20 30 0.0 0.0 0.00 0.23 0.23 98 1014.4
20260905032156 20 30 0.0 0.0 0.00 0.23 0.23 98 1014.7
20260905031652 20 30 0.0 0.0 0.00 0.23 0.23 98 1014.7
20260905031147 20 30 0.0 0.0 0.00 0.23 0.23 98 1014.6
20260905030642 20 30 0.0 0.0 0.00 0.23 0.23 98 1014.7
20260905030137 20 30 0.0 0.0 0.00 0.23 0.23 98 1014.6
20260905025632 20 30 0.0 0.0 0.00 0.23 0.23 98 1014.7
20260905025128 20 30 0.0 0.0 0.00 0.23 0.23 98 1014.8
20260905024623 20 30 0.0 0.0 0.00 0.23 0.23 98 1014.7
20260905024119 20 30 0.0 0.0 0.00 0.23 0.23 98 1014.8
20260905023614 20 30 0.0 0.0 0.00 0.23 0.23 98 1014.8
20260905023108 20 30 0.0 0.0 0.00 0.23 0.23 98 1014.9
20260905022607 20 30 0.0 0.0 0.00 0.23 0.23 98 1014.8
20260905022103 20 30 0.0 0.0 0.00 0.23 0.23 98 1014.9
20260905021602 20 30 0.0 0.0 0.00 0.23 0.23 98 1014.9
20260905021058 20 30 0.0 0.0 0.00 0.23 0.23 98 1015.0
20260905020557 20 30 0.0 0.0 0.00 0.23 0.23 98 1015.0
20260905020053 20 30 0.0 0.0 0.00 0.23 0.23 98 1015.0
20260905015550 20 30 0.0 0.0 0.00 0.23 0.23 98 1015.0
20260905015045 20 30 0.0 0.0 0.00 0.23 0.23 97 1014.9
20260905014540 20 30 0.0 0.0 0.00 0.23 0.23 97 1014.8
20260905014036 21 30 0.0 0.0 0.00 0.23 0.23 97 1014.8
20260905013532 21 30 0.0 0.0 0.00 0.23 0.23 97 1014.8
20260905013027 21 30 0.0 0.0 0.00 0.23 0.23 97 1014.8
20260905012521 21 30 0.0 0.0 0.00 0.23 0.23 97 1014.6
20260905012019 21 30 0.0 0.0 0.00 0.23 0.23 97 1014.7
20260905011515 21 30 0.0 0.0 0.00 0.23 0.23 97 1014.8
20260905011010 21 30 0.0 0.0 0.00 0.23 0.23 97 1014.7
20260905010509 21 30 0.0 0.0 0.00 0.23 0.23 96 1014.8
20260905010006 21 30 0.0 0.0 0.00 0.23 0.23 96 1014.8
20260905005501 21 30 1.6 1.6 0.00 0.23 0.23 96 1014.8
20260905004956 21 30 0.0 0.0 0.00 0.23 0.23 96 1014.8
20260905004451 21 30 0.0 0.0 0.00 0.23 0.23 96 1014.8
20260905003946 21 30 0.0 0.0 0.00 0.23 0.23 95 1014.6
20260905003442 21 30 0.0 0.0 0.00 0.23 0.23 95 1014.7
20260905002937 22 30 0.0 1.6 0.00 0.23 0.23 95 1014.5
20260905002437 22 30 0.0 0.0 0.00 0.23 0.23 94 1014.6
20260905001931 22 30 1.6 1.6 0.00 0.23 0.23 94 1014.4
20260905001427 22 30 0.0 0.0 0.00 0.23 0.23 93 1014.5
20260905000921 22 30 1.6 1.6 0.00 0.23 0.23 93 1014.4
20260905000417 22 30 0.0 0.0 0.00 0.23 0.23 93 1014.5
20260904235912 22 30 3.2 4.8 0.00 0.23 0.23 92 1014.7
20260904235408 22 30 0.0 0.0 0.00 0.23 0.23 91 1014.6
20260904234902 23 30 1.6 1.6 0.00 0.23 0.23 91 1014.6
20260904234356 23 105 0.0 0.0 0.00 0.23 0.23 90 1014.3
20260904233852 23 273 0.0 0.0 0.00 0.23 0.23 89 1014.5
20260904233348 23 273 1.6 1.6 0.00 0.23 0.23 88 1014.8
20260904232844 23 273 0.0 0.0 0.00 0.23 0.23 88 1014.8
20260904232341 23 273 0.0 0.0 0.00 0.23 0.23 88 1015.1
20260904231836 23 273 0.0 0.0 0.00 0.23 0.23 88 1015.2
20260904231331 23 273 0.0 1.6 0.00 0.23 0.23 87 1015.2
20260904230826 24 273 1.6 1.6 0.00 0.23 0.23 85 1015.2
20260904230325 24 273 0.0 0.0 0.00 0.23 0.23 84 1015.0
20260904225820 24 273 0.0 0.0 0.00 0.23 0.23 85 1015.0
20260904225318 24 273 0.0 0.0 0.00 0.23 0.23 85 1014.7
20260904224817 24 273 0.0 1.6 0.00 0.23 0.23 85 1014.7
20260904224314 25 273 0.0 1.6 0.00 0.23 0.23 85 1014.6
20260904223813 25 273 0.0 1.6 0.00 0.23 0.23 83 1014.7
20260904223307 25 273 0.0 0.0 0.00 0.23 0.23 82 1014.6
20260904222804 25 273 0.0 0.0 0.00 0.23 0.23 82 1014.5
20260904222259 25 272 0.0 0.0 0.00 0.23 0.23 81 1014.4
20260904221758 25 320 0.0 0.0 0.00 0.23 0.23 82 1014.4
20260904221253 25 320 0.0 1.6 0.00 0.23 0.23 81 1014.3
20260904220749 25 320 0.0 0.0 0.00 0.23 0.23 81 1014.1
20260904220247 25 320 0.0 1.6 0.00 0.23 0.23 79 1013.9
20260904215743 25 104 1.6 1.6 0.00 0.23 0.23 79 1013.9
20260904215238 25 105 0.0 1.6 0.00 0.23 0.23 79 1013.9
20260904214734 25 269 0.0 1.6 0.00 0.23 0.23 79 1013.9
20260904214229 25 66 0.0 1.6 0.00 0.23 0.23 79 1013.8
20260904213727 25 135 3.2 1.6 0.00 0.23 0.23 79 1013.7
20260904213224 25 270 4.8 8.0 0.00 0.23 0.23 79 1013.8
20260904212719 25 248 1.6 6.4 0.00 0.23 0.23 80 1013.7
20260904212214 25 160 0.0 1.6 0.00 0.23 0.23 79 1013.5
20260904211714 25 229 1.6 1.6 0.00 0.23 0.23 79 1013.5
20260904211208 25 310 4.8 4.8 0.00 0.23 0.23 79 1013.4
20260904210703 25 223 0.0 6.4 0.00 0.23 0.23 77 1013.2
20260904210158 25 288 0.0 1.6 0.00 0.23 0.23 79 1013.3
20260904205654 25 145 0.0 1.6 0.00 0.23 0.23 79 1013.3
20260904205150 25 137 3.2 4.8 0.00 0.23 0.23 78 1012.9
20260904204646 25 193 1.6 4.8 0.00 0.23 0.23 78 1013.3
20260904204142 25 226 4.8 6.4 0.00 0.23 0.23 75 1013.3
20260904203637 25 131 0.0 4.8 0.00 0.23 0.23 74 1013.3
20260904203134 26 256 3.2 4.8 0.00 0.23 0.23 72 1013.8
20260904202630 26 158 8.0 8.0 0.00 0.23 0.23 72 1013.8
20260904202126 26 174 4.8 6.4 0.00 0.23 0.23 74 1013.9
20260904201626 26 63 3.2 4.8 0.00 0.23 0.23 74 1014.1
20260904201121 26 51 1.6 4.8 0.00 0.23 0.23 73 1014.1
20260904200615 26 87 1.6 4.8 0.00 0.23 0.23 73 1014.3
20260904200110 26 15 3.2 6.4 0.00 0.23 0.23 73 1014.3
20260904195609 26 345 1.6 4.8 0.00 0.23 0.23 74 1014.6
20260904195107 26 345 3.2 4.8 0.00 0.23 0.23 72 1014.6
20260904194602 26 300 3.2 6.4 0.00 0.23 0.23 75 1014.7
20260904194057 25 339 4.8 6.4 0.00 0.23 0.23 77 1014.8
20260904193551 25 252 4.8 4.8 0.00 0.23 0.23 76 1015.2
20260904193048 25 4 4.8 8.0 0.00 0.23 0.23 78 1015.1
20260904192548 25 349 1.6 6.4 0.00 0.23 0.23 78 1015.0
20260904192043 25 342 4.8 6.4 0.00 0.23 0.23 80 1014.9
20260904191540 25 265 3.2 6.4 0.00 0.23 0.23 78 1014.7
20260904191036 25 42 0.0 4.8 0.00 0.23 0.23 81 1014.7
20260904190532 25 277 3.2 4.8 0.00 0.23 0.23 82 1014.9
20260904190028 24 227 0.0 1.6 0.00 0.23 0.23 83 1014.9
20260904185524 25 257 3.2 6.4 0.00 0.23 0.23 81 1015.2
20260904185018 25 344 0.0 1.6 0.00 0.23 0.23 80 1015.1
20260904184513 25 20 0.0 8.0 0.00 0.23 0.23 80 1015.2
20260904184008 25 8 0.0 4.8 0.00 0.23 0.23 79 1015.0
20260904183503 25 7 1.6 4.8 0.00 0.23 0.23 79 1015.5
20260904182958 26 47 0.0 4.8 0.00 0.23 0.23 78 1015.7
20260904182454 26 31 1.6 4.8 0.00 0.23 0.23 78 1015.6
20260904181953 25 17 6.4 8.0 0.00 0.23 0.23 81 1016.0
20260904181449 25 7 8.0 11.3 0.00 0.23 0.23 80 1016.2
20260904180944 25 348 4.8 11.3 0.00 0.23 0.23 83 1016.4
20260904180438 25 271 4.8 8.0 0.00 0.23 0.23 81 1016.4
20260904175938 24 45 0.0 8.0 0.00 0.23 0.23 84 1016.4
20260904175437 23 356 9.7 16.1 0.00 0.23 0.23 83 1016.5
20260904174932 23 223 8.0 12.9 0.00 0.23 0.23 85 1016.5
20260904174427 24 336 14.5 17.7 0.00 0.23 0.23 83 1016.9
20260904173923 25 311 4.8 16.1 0.00 0.23 0.23 83 1016.9
20260904173413 25 343 1.6 4.8 0.00 0.23 0.23 85 1016.6
20260904172908 23 349 4.8 6.4 0.00 0.23 0.23 86 1016.6
20260904172402 23 334 1.6 6.4 0.00 0.23 0.23 88 1016.9
20260904171857 23 339 3.2 4.8 0.00 0.23 0.23 89 1016.6
20260904171352 23 18 3.2 6.4 0.00 0.23 0.23 89 1016.6
20260904170849 24 331 9.7 12.9 0.00 0.23 0.23 86 1016.7
20260904170344 23 6 1.6 1.6 0.00 0.23 0.23 88 1016.9
20260904165838 23 358 1.6 4.8 0.00 0.23 0.23 88 1016.9
20260904165337 23 356 0.0 1.6 0.00 0.23 0.23 90 1016.7
20260904164832 23 2 3.2 1.6 0.00 0.23 0.23 89 1016.7
20260904164326 23 21 3.2 6.4 0.00 0.23 0.23 88 1017.0
20260904163824 23 6 11.3 12.9 0.00 0.23 0.23 87 1017.0